{"data":{"norad_id":59000,"intl_designator":"2024-036C","name":"STARLINK-31529","alt_names":[],"object_type":"PAYLOAD","status":"ACTIVE","operator":null,"country":"US","launch_date":"2024-02-23","launch_site_code":"AFWTR","launch_vehicle":null,"mission":null,"orbit_class":"UNKNOWN","rcs_meters":null,"size_class":null,"mass_kg":null,"dimensions":null,"purposes":["comms"],"wikipedia_slug":null,"has_3d_model":false,"image_url":null,"decayed_at":null,"tle_current":{"epoch":"2026-05-25T02:29:27.524256Z","epoch_age_seconds":62560,"freshness":"FRESH","line1":"1 59000U 24036C   26145.10379079  .00013240  00000+0  45809-3 0  9991","line2":"2 59000  53.1585  80.9956 0001110  94.0753 266.0375 15.30218428126979","mean_motion":15.30218428,"eccentricity":0.000111,"inclination_deg":53.1585,"raan_deg":80.9956,"arg_perigee_deg":94.0753,"mean_anomaly_deg":266.0375,"bstar":0.00045809,"rev_number":12697,"period_min":94.104212421627,"perigee_km":474.39933131293,"apogee_km":475.92076325743,"semimajor_km":6853.2970472852,"source":"CELESTRAK","updated_at":"2026-05-25T13:38:18.798121Z"}}}